This is the latest recevied weather packets stored in our database for station/object W0DXV. If no packets are shown the sender has not sent any weather packets the latest 10 day(s).
| Time | Temp. | Humidity | Pressure | Rain* | Wind** | Luminosity | Snow |
|---|---|---|---|---|---|---|---|
| 1777673636 | 17.78° C | 55% | 1007.9 hPa | 0 mm | - | 45 W/m² | - |
| 1777673334 | 17.78° C | 56% | 1007.9 hPa | 0 mm | - | 70 W/m² | - |
| 1777673031 | 18.33° C | 54% | 1007.9 hPa | 0 mm | - | 49 W/m² | - |
| 1777672727 | 18.33° C | 54% | 1007.9 hPa | 0 mm | - | 72 W/m² | - |
| 1777672423 | 17.78° C | 55% | 1008.2 hPa | 0 mm | - | 111 W/m² | - |
| 1777672119 | 18.33° C | 54% | 1007.9 hPa | 0 mm | - | 88 W/m² | - |
| 1777671814 | 18.33° C | 53% | 1008 hPa | 0 mm | - | 94 W/m² | - |
| 1777671511 | 18.33° C | 53% | 1008.2 hPa | 0 mm | - | 69 W/m² | - |
| 1777671207 | 18.33° C | 54% | 1007.9 hPa | 0 mm | - | 70 W/m² | - |
| 1777670903 | 18.89° C | 57% | 1007.9 hPa | 0 mm | - | 62 W/m² | - |
| 1777670600 | 18.89° C | 52% | 1008.2 hPa | 0 mm | - | 64 W/m² | - |
| 1777670297 | 18.89° C | 53% | 1008.4 hPa | 0 mm | - | 80 W/m² | - |
| 1777669994 | 18.89° C | 50% | 1008.1 hPa | 0 mm | - | 85 W/m² | - |
| 1777669691 | 19.44° C | 49% | 1008.3 hPa | 0 mm | - | 84 W/m² | - |
| 1777669389 | 19.44° C | 48% | 1008 hPa | 0 mm | - | 76 W/m² | - |
| 1777669084 | 19.44° C | 51% | 1008.2 hPa | 0 mm | - | 69 W/m² | - |
| 1777668782 | 19.44° C | 51% | 1008.1 hPa | 0 mm | - | 75 W/m² | - |
| 1777668478 | 19.44° C | 49% | 1008.1 hPa | 0 mm | - | 106 W/m² | - |
| 1777668175 | 20° C | 50% | 1008 hPa | 0 mm | - | 252 W/m² | - |
| 1777667871 | 20° C | 48% | 1008.1 hPa | 0 mm | - | 456 W/m² | - |
| 1777667569 | 20° C | 49% | 1008 hPa | 0 mm | - | 461 W/m² | - |
| 1777667266 | 20° C | 48% | 1008.1 hPa | 0 mm | - | 423 W/m² | - |
| 1777666962 | 20.56° C | 47% | 1008.3 hPa | 0 mm | - | 226 W/m² | - |
| 1777666659 | 20.56° C | 48% | 1008.5 hPa | 0 mm | - | 265 W/m² | - |
| 1777666356 | 20° C | 49% | 1008.4 hPa | 0 mm | - | 265 W/m² | - |
* Rain latest hour (hover to see other rain measurements)
** Current wind speed in m/s (hover to see current wind gust speed)